Location: Hormuz
(27.0871°N, 56.4580°E)
Time: 17:43:13
(UTC+04:30)

Envisat - Pass Details

Date: 26 June 2021
Orbit: 764 x 766 km, 98.2° (Epoch: 26 July)

Event Time Altitude Azimuth Distance (km) Brightness Sun altitude
Rises 04:57:43 0° 34° (NE) 3,229 7.6 -11.2°
Reaches altitude 10° 05:00:43 10° 52° (NE) 2,299 7.1 -10.7°
Maximum altitude 05:04:10 18° 96° (E) 1,786 5.7 -10.0°
Drops below altitude 10° 05:07:36 10° 139° (SE) 2,291 5.6 -9.4°
Sets 05:10:35 0° 157° (SSE) 3,213 6.1 -8.8°
